Location: Beneschau
(49.7278°N, 12.9013°E)
Time: 18:40:53
(UTC+00:00)

Daily predictions for brighter satellites

Satellite Brightness Start Highest point End
(mag) Time Altitude Azimuth Time Altitude Azimuth Time Altitude Azimuth
SJ-11-01 4.4 17:23:33 10° SSE 17:28:08 57° ENE 17:32:46 10° N
Cosmos 1943 Rocket 4.2 17:27:19 10° N 17:29:11 11° NNE 17:31:02 10° NE
Okean 1-7 3.3 17:25:18 10° N 17:29:32 45° ENE 17:33:40 10° SSE
Cosmos 2341 Rocket 4.3 17:25:02 10° SSE 17:30:57 45° E 17:36:51 10° NNE
PSLV R/B 4.4 17:27:44 10° NNE 17:31:33 37° E 17:35:19 10° SSE
Cosmos 1844 3.8 17:25:55 10° NNW 17:31:44 88° WSW 17:37:27 10° SSE
Okean 1 4.1 17:28:27 10° NNW 17:32:27 60° W 17:36:26 10° S
YAOGAN 1 2.6 17:29:17 10° SSE 17:33:34 65° ENE 17:37:53 10° N
Cosmos 2278 Rocket 3.1 17:29:15 10° NNW 17:34:17 31° NE 17:39:16 10° ESE
Cosmos 2237 Rocket 3.9 17:33:40 10° ESE 17:34:57 11° E 17:36:14 10° E
SJ 16-02 2.5 17:33:51 10° N 17:37:34 26° NE 17:41:16 10° ESE
SAR-Lupe-4 4.4 17:34:47 10° NE 17:37:58 29° E 17:41:09 10° SSE
FALCON 9 DEB 3.0 17:35:01 10° WNW 17:38:12 71° NNE 17:41:22 10° ESE
Meteor 1-5 Rocket 4.3 17:35:56 10° S 17:41:09 52° E 17:46:36 10° NNE
COSMO-SKYMED 1 3.0 17:38:40 10° N 17:43:00 70° WNW 17:47:19 10° SSW
Okean 3 4.2 17:39:08 10° N 17:43:01 33° ENE 17:46:54 10° SE
SL-4 R/B 2.3 17:39:45 10° WNW 17:43:15 49° SSW 17:46:34 10° SE
IRS-1C Rocket 4.3 17:38:25 10° SSE 17:43:41 79° WSW 17:49:00 10° NNW
Cosmos 1980 Rocket 4.5 17:39:37 10° W 17:43:57 22° NW 17:48:18 10° N
Cosmos 1536 4.0 17:41:55 10° SE 17:45:01 22° E 17:48:06 10° NE
SeaSat 1 3.6 17:41:42 10° NE 17:45:33 22° ESE 17:49:22 10° SSE
FALCON 9 DEB 2.9 17:42:58 10° WNW 17:46:09 83° NNE 17:49:12 11° ESE
Cosmos 1633 Rocket 4.4 17:42:27 10° SSW 17:46:42 45° WNW 17:50:58 10° N
Cosmos 2242 Rocket 3.6 17:42:29 10° N 17:47:01 80° E 17:51:27 10° SSE
MOS 1 Rocket 4.3 17:43:09 10° N 17:48:13 58° WNW 17:53:29 10° SSW
Gbstr 26 Del rocket 3.4 17:46:21 10° WNW 17:50:45 73° N 17:55:47 12° E
Cosmos 2333 Rocket 2.4 17:48:48 10° S 17:54:16 51° ESE 17:59:49 10° NE
Abrixas rocket 2.6 17:52:17 10° W 17:54:36 35° SSW 17:56:40 12° SE
Resurs 01 Rocket 3.6 17:54:08 10° ENE 17:55:33 12° NE 17:57:09 10° NNE
Meteor 2-4 Rocket 4.1 17:52:03 10° NNW 17:57:57 76° W 18:03:52 10° S
SAR-Lupe-1 4.2 17:54:57 10° NNE 17:58:29 51° ESE 18:01:59 10° S
Helios 1A Rocket 2.8 17:56:14 10° SSE 18:00:16 72° ENE 18:04:18 10° N
Cosmos 2322 Rocket 3.3 17:55:10 10° SW 18:00:33 46° NW 18:06:00 10° NNE
Lacrosse 4 Rocket 1.6 17:57:14 10° SSW 18:01:32 55° ESE 18:05:57 10° NE
GP-B 3.0 17:57:56 10° S 18:02:20 72° E 18:06:47 10° N
ARGOS 3.2 17:59:02 10° SSE 18:04:28 88° WSW 18:09:57 10° NNW
ERBS 4.1 18:04:06 10° WNW 18:06:49 23° N 18:09:27 10° NE
Cosmos 192 4.3 18:03:10 10° SSW 18:08:01 68° ESE 18:12:56 10° NNE
Cosmos 1869 Rocket 3.6 18:04:41 10° S 18:08:57 56° E 18:13:18 10° NNE
CZ-4B R/B 3.3 18:06:47 10° N 18:09:33 31° WNW 18:12:20 10° SW
CZ-4 R/B 2.6 18:06:13 10° S 18:09:57 44° W 18:13:47 10° NNW
Cosmos 2219 Rocket 2.2 18:05:16 10° S 18:10:45 59° ESE 18:16:17 10° NE
ERS-2 2.0 18:10:29 10° NNE 18:14:10 82° ESE 18:17:49 10° SSW
CZ-2C R/B 2.6 18:09:06 10° NNE 18:14:32 64° E 18:19:48 10° S
FALCON 9 DEB 3.1 18:11:40 10° WNW 18:14:48 64° SSW 18:16:46 20° SE
Cosmos 1689 Rocket 2.1 18:12:53 10° N 18:15:46 79° WNW 18:18:39 10° SSW
Cosmos 1238 Rocket 3.2 18:13:32 10° SSE 18:17:09 34° E 18:20:17 10° NNE
Cosmos 1378 3.1 18:14:37 10° N 18:18:19 56° ENE 18:21:57 10° SSE
SL-08 RB Rocket 3.7 18:14:51 10° SSE 18:19:23 87° WSW 18:24:02 10° NNW
USA 305 3.0 18:15:48 10° WNW 18:20:05 67° NNE 18:22:40 23° E
NOSS 3-2 (A) 3.7 18:18:08 10° S 18:23:20 40° ESE 18:29:15 10° NE
CREW DRAGON DEMO-1 DEB 3.4 18:20:54 10° SW 18:23:30 34° SSE 18:23:59 32° SE
HJ-1C 4.4 18:20:50 10° S 18:24:02 47° W 18:27:15 10° NNW
FALCON 9 DEB 3.1 18:21:06 10° WNW 18:24:16 64° SSW 18:25:51 26° SE
COSMOS 2428 2.7 18:19:52 10° SSW 18:25:29 64° ESE 18:31:08 10° NE
Cosmos 1733 Rocket 3.8 18:22:35 10° SSE 18:26:20 29° E 18:30:08 10° NNE
SL-16 R/B 4.2 18:24:25 10° WSW 18:29:13 28° NW 18:34:04 10° NNE
USA 307 2.9 18:29:33 10° WNW 18:33:51 73° NNE 18:35:52 30° E
Meteor 2-20 4.4 18:27:50 10° N 18:33:56 64° ENE 18:40:01 10° SSE
Cosmos 2369 Rocket 4.0 18:30:53 10° N 18:34:05 15° NNE 18:36:12 13° NE
SL-8 Rocket 4.0 18:28:11 10° S 18:34:24 85° W 18:40:38 10° N
CENTAUR R/B 3.0 18:29:51 10° S 18:35:06 34° ESE 18:41:12 10° NE
USA 306 2.9 18:30:49 10° WNW 18:35:08 76° NNE 18:37:06 31° ESE
Cosmos 1066 Rocket 4.3 18:30:54 10° NNW 18:36:42 90° ESE 18:42:33 10° S
Cosmos 1898 Rocket 3.9 18:31:47 10° NNW 18:36:48 43° ENE 18:39:12 27° ESE
NOSS 0 Rocket 4.2 18:31:10 10° S 18:36:54 43° ESE 18:42:41 10° NE
ATLAS CENTAUR R/B 3.2 18:33:59 10° W 18:37:04 25° NW 18:40:14 10° NNE
Cosmos 1743 3.0 18:37:13 10° SSE 18:40:54 42° E 18:44:36 10° NNE
Cosmos 1666 4.0 18:39:15 10° SSW 18:42:48 41° WNW 18:46:24 10° N
USA 308 2.8 18:40:23 10° WNW 18:44:41 81° NNE 18:46:15 38° ESE
CSL-04 Rocket 4.5 18:40:09 10° S 18:45:33 54° W 18:50:56 10° NNW
Cosmos 2322 4.1 18:40:48 10° SW 18:46:30 66° WNW 18:52:12 10° NNE
Meteor 1-23 Rocket 4.1 18:41:29 10° NNW 18:47:08 86° E 18:52:49 10° SSE
GRACE-FO 1 4.4 18:47:01 10° S 18:50:40 82° E 18:54:21 10° N
BREEZE-M DEB (TANK) 3.8 18:48:27 10° SW 18:50:06 31° S 18:50:06 31° S
ASTEX 1 3.2 18:46:06 10° N 18:51:00 72° E 18:55:51 10° S
GRACE-FO 2 4.4 18:47:27 10° S 18:51:05 83° E 18:54:47 10° N
Cosmos 2366 rocket 4.2 18:46:20 10° SSW 18:52:41 78° W 18:59:04 10° N
H-2A R/B 4.3 18:48:30 10° SSW 18:53:05 27° W 18:57:41 10° NW
Cosmos 1674 Rocket 3.7 18:50:17 10° N 18:54:30 50° ENE 18:55:15 44° ESE
SJ-6B 2.8 18:52:44 19° SSE 18:55:36 86° WSW 18:59:37 10° NNW
Cosmos 990 Rocket 3.9 18:52:11 10° NNW 18:57:22 70° ENE 18:59:40 33° SE
Cosmos 2221 Rocket 3.6 18:54:05 10° NNW 18:58:32 82° W 19:02:10 15° S
Ariane Rocket 2.9 18:55:34 20° SSE 18:59:09 80° ENE 19:04:16 10° NNW
USA 186 2.5 18:59:36 35° SW 18:59:59 39° W 19:02:31 10° NNW
ARIANE 5 R/B 4.4 19:01:45 18° NE 19:01:45 18° NE 19:04:02 10° NNE
Cosmos 2297 4.4 18:56:05 10° NNW 19:01:24 37° NE 19:02:40 33° ENE
OBJECT-B 0.8 19:02:09 63° SSW 19:02:34 78° WSW 19:05:49 10° NNW
Cosmos 1763 Rocket 3.8 18:57:50 10° S 19:02:49 42° ESE 19:07:50 10° NE
NOSS 3-2 (C) 3.5 18:59:39 10° SSW 19:05:00 46° ESE 19:08:11 26° ENE
SL-08 R/B 4.5 18:59:14 10° S 19:05:41 84° E 19:12:12 10° N
Okean 2 4.3 19:01:53 10° N 19:04:48 33° NE 19:04:48 33° NE
Meteor 1-11 Rocket 4.3 19:01:08 10° SSW 19:06:44 60° WNW 19:12:15 10° N
Cosmos 1378 Rocket 3.5 19:04:35 10° N 19:09:01 59° ENE 19:09:21 57° E
Cosmos 2360 Rocket 4.2 19:06:31 10° WSW 19:11:20 28° NW 19:16:12 10° NNE
Cosmos 468 Rocket 4.0 19:09:19 10° S 19:14:28 55° ESE 19:19:38 10° NNE
Cosmos 1943 Rocket 3.0 19:09:42 10° NNW 19:14:50 33° NE 19:15:25 33° ENE
SJ 16-02 2.4 19:12:08 10° NW 19:16:19 43° WSW 19:19:19 17° S
Cosmos 1727 Rocket 4.4 19:10:17 10° NNW 19:16:23 62° W 19:22:29 10° S
Cosmos 1821 Rocket 3.8 19:10:40 10° S 19:16:51 76° E 19:23:00 10° NNE
Cosmos 2237 Rocket 2.1 19:12:15 10° SSW 19:17:53 64° ESE 19:23:31 10° NNE
Cosmos 858 Rocket 4.4 19:12:52 10° NNW 19:18:02 63° ENE 19:18:47 56° ESE
Cosmos 1544 3.4 19:15:05 10° SSW 19:18:42 64° WNW 19:22:22 10° N
Cosmos 2278 Rocket 2.6 19:13:10 10° NW 19:18:44 59° WSW 19:22:11 23° S
MOS 1 4.4 19:15:42 18° S 19:20:03 74° WSW 19:25:46 10° NNW
Cosmos 1000 Rocket 4.4 19:14:49 10° N 19:21:10 89° E 19:25:17 23° S
Cosmos 1536 4.4 19:17:32 10° SW 19:21:13 36° WNW 19:24:56 10° N
SL-4 R/B 4.4 19:21:19 10° WSW 19:22:02 11° SW 19:22:46 10° SW
Meteor 1-21 4.2 19:16:25 10° N 19:22:06 61° ENE 19:23:05 53° ESE
USA 81 3.9 19:17:18 10° S 19:22:34 89° E 19:27:53 10° N
SeaSat 1 2.8 19:18:32 10° NNE 19:23:27 66° NW 19:28:20 10° SW
SPOT 3 Rocket 3.5 19:24:24 58° SE 19:25:16 70° ENE 19:30:29 10° N
Cosmos 2239 Rocket 4.4 19:20:17 10° S 19:26:33 75° E 19:32:48 10° NNE
Cosmos 1934 Rocket 3.9 19:30:06 54° ESE 19:30:42 57° E 19:36:43 10° NNE
Resurs 01 Rocket 1.6 19:31:41 69° NNE 19:31:41 69° NNE 19:35:42 10° N
SME Rocket 4.2 19:23:45 10° NNE 19:31:27 73° WNW 19:36:27 10° SSW
SPOT 1/Viking Rocket 4.1 19:33:55 43° NE 19:33:55 43° NE 19:38:11 10° N
USA 234 3.3 19:33:09 50° ESE 19:34:13 55° SE 19:40:37 10° SW
Gbstr 26 Del rocket 3.7 19:32:58 10° WNW 19:37:45 58° SSW 19:38:19 55° S
Cosmos 2333 Rocket 3.7 19:33:34 10° WSW 19:38:46 35° NW 19:44:02 10° NNE
Cosmos 1937 Rocket 3.3 19:34:16 10° NNW 19:39:28 87° WSW 19:39:49 78° S
Cosmos 2123 Rocket 3.8 19:33:25 10° N 19:39:42 79° E 19:41:02 57° SSE
Lacrosse 4 Rocket 3.6 19:36:43 10° W 19:40:31 27° NW 19:44:23 10° NNE
IGS 5A 4.5 19:44:27 39° N 19:44:27 39° N 19:47:09 10° N
USA 238 DEB 3.6 19:38:21 10° SW 19:44:58 84° NW 19:51:58 10° NE
USA 238 3.6 19:38:28 10° SW 19:45:04 85° NW 19:52:04 10° NE
Resurs 1-3 4.4 19:45:27 44° SW 19:46:12 49° W 19:50:29 10° NNW
Cosmos 1842 4.3 19:42:19 10° NNW 19:45:12 44° NW 19:45:12 44° NW
Cosmos 2219 Rocket 3.9 19:50:09 10° WSW 19:55:04 30° NW 20:00:02 10° NNE
Terra 3.8 20:00:54 19° NNE 20:00:54 19° NNE 20:02:34 10° N
USA 305 4.4 19:55:57 10° WNW 19:58:46 31° WSW 19:58:46 31° WSW
ERS-1 Rocket 4.3 20:03:06 30° NNE 20:03:06 30° NNE 20:05:55 10° N
Cosmos 1980 4.1 19:57:07 10° SW 20:02:42 61° WNW 20:08:20 10° NNE
Meteor 2-9 Rocket 4.3 20:10:29 66° WNW 20:10:29 66° WNW 20:15:34 10° N
Spot 2 Rocket 4.3 20:14:35 45° N 20:14:35 45° N 20:18:09 10° NNW
NOSS 3-2 (A) 4.1 20:08:17 10° WSW 20:14:00 53° NW 20:20:40 10° NE
Cosmos 1605 Rocket 4.3 20:15:57 58° NNE 20:15:57 58° NNE 20:21:02 10° NNE
Cosmos 2369 Rocket 3.0 20:14:00 10° NNW 20:18:00 41° N 20:18:00 41° N
CENTAUR R/B 2.9 20:19:14 10° WSW 20:25:18 64° NW 20:32:39 10° NE
USA 281 4.0 20:54:08 42° NNE 20:54:08 42° NNE 20:58:53 10° NNW
NOSS 3-2 (C) 4.2 20:50:12 10° WSW 20:55:53 49° NW 21:02:32 10° NE
Cosmos 1943 Rocket 3.5 20:53:21 10° NW 20:56:57 37° WNW 20:56:57 37° WNW
Cosmos 2237 Rocket 3.9 20:57:28 10° WSW 21:02:23 29° NW 21:07:21 10° NNE
Resurs 01 Rocket 4.5 21:09:15 13° WNW 21:09:15 13° WNW 21:10:35 10° WNW
USA 234 4.5 21:20:31 32° W 21:20:31 32° W 21:23:51 10° WSW
CENTAUR R/B 4.3 22:11:33 10° WNW 22:17:27 31° NNW 22:24:16 10° NE
ATLAS 3B R/B 4.5 23:35:00 25° NNE 23:35:00 25° NNE 23:38:29 10° NE
